Regional Weather Roundup
Issued by NWS

Home | Current Version | Previous Version | Graphics & Text | Print | Product List | Glossary On
Versions: 1 2 3 4 5 6 7 8 9 10 11 12 13 14 15 16 17 18 19 20 21 22 23 24 25 26 27 28 29 30 31 32 33 34 35 36 37 38 39 40 41 42 43 44 45 46 47 48 49 50
000
ASUS43 KDMX 201607
RWRIA

WEATHER ROUNDUP FOR IOWA
NATIONAL WEATHER SERVICE DES MOINES IA
1100 AM CDT WED AUG 20 2014

NOTE: "FAIR" INDICATES FEW OR NO CLOUDS BELOW 12,000 FEET WITH NO
SIGNIFICANT WEATHER AND/OR OBSTRUCTIONS TO VISIBILITY.

* - THESE STATIONS ARE NOT NWS STATIONS...THUS NOT UNDER NWS
QUALITY CONTROL.  THEY ALSO DO NOT REPORT WEATHER SUCH
AS PRECIPITATION OR FOG.

IAZ001>003-012>014-020>022-031>034-043>046-201700-
   NORTHWEST IOWA

CITY           SKY/WX    TMP DP  RH WIND       PRES   REMARKS
CARROLL *      LGT RAIN  70  68  94 SE13      29.84R
CHEROKEE *     CLOUDY    72  68  88 SE9       29.83S
DENISON *      SUNNY     70  68  94 S8G16     29.84R
LE MARS *      SUNNY     72  68  88 S8        29.80F
ORANGE CITY *  SUNNY     75  66  73 E7        29.81F
SHELDON *      SUNNY     72  68  88 SE12G17   29.81S
SIOUX CITY     LGT RAIN  72  67  84 SE7       29.82R
SPENCER        CLOUDY    71  66  84 S13       29.83F
STORM LAKE *   SUNNY     72  72 100 E9        29.87R
$$

IAZ055>058-069>071-079>083-090>094-201700-
   SOUTHWEST IOWA

CITY           SKY/WX    TMP DP  RH WIND       PRES   REMARKS
ATLANTIC *     SUNNY     73  64  73 SE12G20   29.87F
AUDUBON *      SUNNY     72  68  88 S7        29.87F
CLARINDA *     SUNNY     75  68  78 E8G16     29.91S
COUNCIL BLFS * SUNNY     73  70  88 SE13      29.86S
CRESTON *      SUNNY     73  66  78 E8G16     29.91F
HARLAN  *      SUNNY     72  66  83 SE12G22   29.89F
LAMONI           N/A     75  67  76 VRB6      29.93S
RED OAK *      CLOUDY    75  66  73 E13       29.89R
SHENANDOAH *   SUNNY     79  72  78 E12G18    29.88F HX  82
$$

IAZ047>049-059>061-072>074-084-201700-
   CENTRAL IOWA

CITY           SKY/WX    TMP DP  RH WIND       PRES   REMARKS
AMES           LGT RAIN  68  68 100 SE12      29.86F
ANKENY *       LGT RAIN  68  66  94 S7        29.88F
CHARITON *     SUNNY     70  68  94 E6        29.91F
DES MOINES     LGT RAIN  69  65  86 SE9       29.88F
GRINNELL*      LGT RAIN  68  66  94 SW6       29.93S
KNOXVILLE *    CLOUDY    68  66  94 SE6       29.89F
MARSHALLTOWN   LGT RAIN  68  67  96 S10       29.91S FOG
PELLA *        LGT RAIN  70  68  94 CALM      29.91S
PERRY *          N/A     68  68 100 S9        29.85F
$$

IAZ004>006-015-016-023>025-035-036-201700-
   NORTH CENTRAL IOWA

CITY           SKY/WX    TMP DP  RH WIND       PRES   REMARKS
ALGONA *       SUNNY     72  68  88 SE8       29.85F
CLARION *      SUNNY     70  68  94 SE10      29.86F
ESTHERVILLE    CLOUDY    72  66  81 SE10      29.84S
FORT DODGE *   CLOUDY    70  66  88 E7        29.87S
MASON CITY     LGT RAIN  75  68  78 S8        29.88F
FOREST CITY *  SUNNY     75  68  78 SE10      29.86F
IOWA FALLS *     N/A     70  66  88 SE7       29.91R
$$

IAZ007>011-017>019-026>030-037>042-050>054-066-201700-
   NORTHEAST IOWA

CITY           SKY/WX    TMP DP  RH WIND       PRES   REMARKS
CEDAR RAPIDS   CLOUDY    69  68  96 SW5       29.93S
CHARLES CITY * SUNNY     73  68  83 S7        29.91S
CLINTON *      CLOUDY    75  66  73 W7        29.94S
DECORAH *      SUNNY     77  68  73 SW5       29.90R
DUBUQUE        CLOUDY    76  66  71 W10       29.92R
MONTICELLO *   SUNNY     77  68  73 SW7       29.92R
OELWEIN *      PTSUNNY   73  68  83 SW10      29.94R
WATERLOO       CLOUDY    73  66  78 SW9       29.90F
$$

IAZ064-065-067-068-078-201700-
   EAST CENTRAL IOWA

CITY           SKY/WX    TMP DP  RH WIND       PRES   REMARKS
DAVENPORT      CLOUDY    75  67  76 W7        29.93R
IOWA CITY      CLOUDY    70  68  93 CALM      29.94S
MT. PLEASANT * RAIN      70  66  88 N9        29.95F
MUSCATINE *    MOSUNNY   72  68  88 W7        29.95R
QUAD CITIES    CLOUDY    74  67  78 CALM      29.92R
$$

IAZ062-063-075>077-085>089-095>099-201700-
   SOUTHEAST IOWA

CITY           SKY/WX    TMP DP  RH WIND       PRES   REMARKS
BURLINGTON     RAIN      69  68  96 NW6       29.96R FOG
FAIRFIELD *    RAIN      68  66  94 N12       29.94F
FORT MADISON * RAIN      70  70 100 N6        29.96R
KEOKUK *       CLOUDY    70  68  94 CALM      29.95R
OSKALOOSA *    RAIN      68  66  94 SE3       29.92F
CENTERVILLE *  SUNNY     68  68 100 CALM      29.94F
OTTUMWA        LGT RAIN  68  66  93 NE5       29.93R
WASHINGTON *   LGT RAIN  68  68 100 CALM      29.93F
$$

ABBREVIATIONS USED IN REMARKS
   TC - TEMPERATURES IN CELSIUS
  WCI - WIND CHILL INDEX
   HX - HEAT INDEX
  VSB - VISIBILITY
$$




USA.gov is the U.S. government's official web portal to all federal, state and local government web resources and services.